Location: Guayaquil
(2.1667°S, 79.9000°W)
Time: 13:54:05
(UTC-05:00)

DNEPR OBJECT AB - Visible Passes

Search period start: 25 September 2017 00:00
Search period end: 05 October 2017 00:00
Orbit: 589 x 703 km, 97.6° (Epoch: 25 September)

Date Brightness Start Highest point End Pass type
(mag) Time Alt. Az. Time Alt. Az. Time Alt. Az.
25 Sep ? 19:19:03 10° SSE 19:23:09 61° ENE 19:27:17 10° N visible
26 Sep ? 19:44:23 10° S 19:48:26 53° W 19:52:31 10° NNW visible
27 Sep ? 18:35:19 10° ESE 18:37:18 13° ENE 18:39:17 10° NE visible
27 Sep ? 20:10:28 10° SSW 20:13:42 22° WSW 20:16:59 10° NW visible
28 Sep ? 18:58:54 10° SE 19:02:35 30° ENE 19:06:17 10° NNE visible
29 Sep ? 19:23:41 10° SSE 19:27:51 75° ENE 19:32:04 10° N visible
30 Sep ? 19:49:10 10° S 19:53:08 43° WSW 19:57:10 10° NNW visible
01 Oct ? 18:39:25 10° ESE 18:42:01 16° ENE 18:44:37 10° NE visible
01 Oct ? 20:15:27 10° SSW 20:18:24 19° WSW 20:21:25 10° WNW visible
02 Oct ? 19:03:24 10° SE 19:07:16 36° ENE 19:11:13 10° NNE visible
03 Oct ? 19:28:21 10° S 19:32:33 90° WSW 19:36:51 10° NNW visible
04 Oct ? 19:53:58 10° SSW 19:57:50 36° WSW 20:01:48 10° NW visible
